Location: Las Navas
(40.6024°N, 4.3345°W)
Time: 01:47:00
(UTC+00:00)

SL-24 R/B - RUBIN 2 - Pass Details

Date: 03 April 2020
Orbit: 569 x 1026 km, 64.6° (Epoch: 27 May)

Event Time Altitude Azimuth Distance (km) Brightness Sun altitude
Rises 20:27:56 0° 192° (SSW) 3,147 7.0 -19.5°
Reaches altitude 10° 20:30:14 10° 186° (S) 2,297 6.3 -19.9°
Maximum altitude 20:35:18 46° 114° (ESE) 1,120 4.4 -20.8°
Drops below altitude 10° 20:41:02 10° 43° (NE) 2,610 6.6 -21.7°
Sets 20:43:48 0° 38° (NE) 3,620 7.4 -22.2°
